Weather History for KEAU - May, 2014

Change the Weather History Date:

Monday, May 19, 2014

  Actual Average Record
Temperature  
Mean Temperature 56 °F 58 °F  
Max Temperature 60 °F 71 °F 94 °F (1934)
Min Temperature 51 °F 46 °F 27 °F (1929)
Degree Days  
Heating Degree Days 9 7  
Month to date heating degree days 233 185  
Since 1 July heating degree days 9119 7826  
Cooling Degree Days 0 1  
Month to date cooling degree days 0 13  
Year to date cooling degree days 0 17  
Growing Degree Days 5 (Base 50)    
Moisture  
Dew Point 47 °F    
Average Humidity 70    
Maximum Humidity 96    
Minimum Humidity 43    
Precipitation  
Precipitation 1.67 in 0.12 in 2.00 in (1897)
Month to date precipitation 3.41 2.07  
Year to date precipitation 13.43 8.25  
Snow  
Snow 0.00 in 0.00 in T in (1924)
Month to date snowfall 0.0 0.2  
Since 1 July snowfall 74.8 47.0  
Snow Depth 0.00 in    
Sea Level Pressure  
Sea Level Pressure 29.95 in    
Wind  
Wind Speed 13 mph (SE)    
Max Wind Speed 26 mph    
Max Gust Speed 35 mph    
Visibility 8 miles    
Events Rain , Thunderstorm    
T = Trace of Precipitation, MM = Missing Value Source: NWS Daily Summary

Daily Weather History Graph

Daily Weather History Graph

Search for Another Location

Airport or City:

Trip Planner

Search our weather history database for the weather conditions in past years. The results will help you decide how hot, cold, wet, or windy it might be!

Date:

Astronomy

May. 19, 2014 Rise Set
Actual Time 5:33 AM CDT 8:32 PM CDT
Civil Twilight 4:58 AM CDT 9:07 PM CDT
Nautical Twilight 4:14 AM CDT 9:51 PM CDT
Astronomical Twilight 3:21 AM CDT 10:44 PM CDT
Moon 12:16 AM CDT (5/19) 10:35 AM CDT (5/19)
Length of Visible Light 16h 08m
Length of Day
14h 59m
Waning Gibbous, 71% of the Moon is Illuminated
May 19
Waning Gibbous
May 21
Last Quarter
May 28
New
Jun 5
First Quarter
Jun 12
Full

Hourly Weather History & Observations

Time (CDT) Temp. Dew Point Humidity Pressure Visibility Wind Dir Wind Speed Gust Speed Precip Events Conditions
1:56 AM 57.0 °F 37.0 °F 47% 30.07 in 10.0 mi South 9.2 mph - N/A   Clear
2:56 AM 57.9 °F 36.0 °F 44% 30.07 in 10.0 mi South 9.2 mph - N/A   Clear
3:56 AM 55.9 °F 37.0 °F 49% 30.06 in 10.0 mi South 6.9 mph - N/A   Clear
4:56 AM 55.0 °F 37.0 °F 51% 30.06 in 10.0 mi South 10.4 mph - N/A   Partly Cloudy
5:56 AM 55.0 °F 37.9 °F 53% 30.04 in 10.0 mi South 8.1 mph - N/A   Clear
6:56 AM 55.9 °F 39.9 °F 55% 30.04 in 10.0 mi SSE 8.1 mph - N/A   Clear
9:56 AM 59.0 °F 42.1 °F 53% 29.99 in 10.0 mi SE 19.6 mph 31.1 mph 0.00 in Rain Light Rain
10:56 AM 57.0 °F 46.0 °F 67% 29.99 in 10.0 mi SE 16.1 mph 23.0 mph 0.00 in Rain Light Rain
11:43 AM 55.0 °F 46.9 °F 74% 29.97 in 10.0 mi SE 17.3 mph - 0.01 in Rain , Thunderstorm Light Rain
11:54 AM 53.6 °F 48.2 °F 82% 29.97 in 9.0 mi SE 11.5 mph - 0.02 in Rain , Thunderstorm Light Thunderstorms and Rain
11:56 AM 54.0 °F 48.0 °F 80% 29.98 in 8.0 mi SE 10.4 mph - 0.03 in Rain , Thunderstorm Light Thunderstorms and Rain
12:09 PM 53.1 °F 48.9 °F 86% 29.96 in 4.0 mi ESE 16.1 mph 23.0 mph 0.07 in Rain Heavy Rain
12:56 PM 52.0 °F 48.9 °F 89% 29.95 in 4.0 mi ESE 17.3 mph 24.2 mph 0.27 in Rain , Thunderstorm Rain
1:09 PM 52.0 °F 48.9 °F 89% 29.93 in 7.0 mi East 12.7 mph 23.0 mph 0.03 in Rain Rain
1:56 PM 52.0 °F 50.0 °F 93% 29.95 in 6.0 mi ESE 11.5 mph - 0.25 in Rain Rain
2:06 PM 52.0 °F 50.0 °F 93% 29.94 in 5.0 mi East 15.0 mph 21.9 mph 0.06 in Rain Heavy Rain
2:28 PM 52.0 °F 50.0 °F 93% 29.93 in 6.0 mi ESE 10.4 mph 24.2 mph 0.15 in Rain Rain
2:56 PM 52.0 °F 50.0 °F 93% 29.94 in 4.0 mi ESE 10.4 mph 21.9 mph 0.26 in Rain Heavy Rain
3:47 PM 52.0 °F 48.9 °F 89% 29.93 in 10.0 mi NE 10.4 mph - 0.08 in Rain , Thunderstorm Light Rain
3:54 PM 51.8 °F 48.2 °F 88% 29.93 in 10.0 mi ENE 10.4 mph - 0.08 in Rain , Thunderstorm Light Rain
3:56 PM 52.0 °F 48.9 °F 89% 29.94 in 10.0 mi NE 9.2 mph - 0.08 in Thunderstorm Overcast
4:18 PM 51.1 °F 50.0 °F 96% 29.96 in 7.0 mi NNE 5.8 mph - 0.03 in Rain , Thunderstorm Thunderstorms and Rain
4:48 PM 52.0 °F 50.0 °F 93% 29.93 in 4.0 mi ESE 9.2 mph - 0.13 in Rain , Thunderstorm Heavy Thunderstorms and Rain
4:56 PM 51.1 °F 50.0 °F 96% 29.94 in 2.5 mi SE 12.7 mph 17.3 mph 0.24 in Rain , Thunderstorm Heavy Thunderstorms and Rain
5:25 PM 51.1 °F 50.0 °F 96% 29.92 in 4.0 mi SE 12.7 mph 23.0 mph 0.15 in Rain , Thunderstorm Thunderstorms and Rain
5:56 PM 51.1 °F 50.0 °F 96% 29.89 in 5.0 mi SE 25.3 mph 32.2 mph 0.25 in Rain Rain
6:56 PM 52.0 °F 50.0 °F 93% 29.86 in 10.0 mi SSE 21.9 mph 33.4 mph 0.07 in Rain Light Rain
7:56 PM 52.0 °F 50.0 °F 93% 29.87 in 6.0 mi SSE 12.7 mph - 0.04 in Rain Rain
8:56 PM 54.0 °F 51.1 °F 90% 29.85 in 10.0 mi SE 18.4 mph 24.2 mph 0.18 in   Overcast
9:56 PM 55.0 °F 48.9 °F 80% 29.85 in 10.0 mi SE 18.4 mph 25.3 mph N/A   Overcast
10:56 PM 54.0 °F 48.9 °F 83% 29.85 in 10.0 mi SE 10.4 mph 23.0 mph N/A   Overcast
11:56 PM 54.0 °F 48.9 °F 83% 29.83 in 10.0 mi ESE 5.8 mph - N/A   Overcast